Overview Statistics Trail Chart Weather Telemetry Raw packets
 

This is the latest recevied weather packets stored in our database for station/object KD4EED. If no packets are shown the sender has not sent any weather packets the latest 10 day(s).

<< 31 32 33 34 35 36 37 >>
Time Temp. Humidity Pressure Rain* Wind** Luminosity Snow
1788469971 27.78° C 54% 1010.5 hPa - - 609 W/m² -
1788469667 27.78° C 54% 1010.5 hPa - - 614 W/m² -
1788469362 27.78° C 53% 1010.7 hPa - - 618 W/m² -
1788469062 27.78° C 53% 1010.6 hPa - - 618 W/m² -
1788468761 27.78° C 55% 1010.7 hPa - - 618 W/m² -
1788468457 27.78° C 54% 1010.9 hPa - - 621 W/m² -
1788468153 27.78° C 56% 1010.8 hPa - - 624 W/m² -
1788467848 27.22° C 57% 1010.9 hPa - - 623 W/m² -
1788467545 27.22° C 55% 1010.7 hPa - - 619 W/m² -
1788467243 27.22° C 54% 1010.7 hPa - - 617 W/m² -
1788466940 27.22° C 54% 1010.6 hPa - - 617 W/m² -
1788466639 27.78° C 53% 1010.7 hPa - - 617 W/m² -
1788466335 27.78° C 53% 1010.9 hPa - - 612 W/m² -
1788466033 27.78° C 54% 1010.8 hPa - - 608 W/m² -
1788465729 27.78° C 52% 1010.9 hPa - - 603 W/m² -
1788465425 27.78° C 54% 1010.9 hPa - - 598 W/m² -
1788465120 27.78° C 54% 1011.1 hPa - - 599 W/m² -
1788464820 27.78° C 54% 1011.1 hPa - - 595 W/m² -
1788464515 27.78° C 54% 1011 hPa - - 597 W/m² -
1788464212 27.78° C 53% 1011.1 hPa - - 591 W/m² -
1788463911 28.33° C 52% 1011.2 hPa - - 590 W/m² -
1788463608 28.33° C 54% 1011.1 hPa - - 587 W/m² -
1788463308 27.78° C 55% 1011.2 hPa - - 574 W/m² -
1788463004 27.78° C 54% 1011.6 hPa - - 569 W/m² -
1788462704 27.78° C 54% 1011.5 hPa - - 568 W/m² -

* Rain since midnight (hover to see other rain measurements)
** Current wind speed in m/s (hover to see current wind gust speed)